Year,Month,Day,Hour,Minute,Value (Times are PST for temperature in C)
2008,07,20,00,00,12.30
2008,07,20,00,01,12.40
2008,07,20,00,02,12.40
2008,07,20,00,03,12.40
2008,07,20,00,04,12.40
2008,07,20,00,05,12.40
2008,07,20,00,06,12.40
2008,07,20,00,07,12.50
2008,07,20,00,08,12.50
2008,07,20,00,09,12.50
2008,07,20,00,10,12.50
2008,07,20,00,11,12.50
2008,07,20,00,12,12.50
2008,07,20,00,13,12.50
2008,07,20,00,14,12.50
2008,07,20,00,15,12.50
2008,07,20,00,16,12.50
2008,07,20,00,17,12.60
2008,07,20,00,18,12.60
2008,07,20,00,19,12.60
2008,07,20,00,20,12.60
2008,07,20,00,21,12.60
2008,07,20,00,22,12.60
2008,07,20,00,23,12.60
2008,07,20,00,24,12.60
2008,07,20,00,25,12.60
2008,07,20,00,26,12.60
2008,07,20,00,27,12.60
2008,07,20,00,28,12.50
2008,07,20,00,29,12.50
2008,07,20,00,30,12.50
2008,07,20,00,31,12.50
2008,07,20,00,32,12.50
2008,07,20,00,33,12.50
2008,07,20,00,34,12.50
2008,07,20,00,35,12.60
2008,07,20,00,36,12.60
2008,07,20,00,37,12.60
2008,07,20,00,38,12.60
2008,07,20,00,39,12.60
2008,07,20,00,40,12.70
2008,07,20,00,41,12.70
2008,07,20,00,42,12.60
2008,07,20,00,43,12.60
2008,07,20,00,44,12.60
2008,07,20,00,45,12.60
2008,07,20,00,46,12.60
2008,07,20,00,47,12.60
2008,07,20,00,48,12.60
2008,07,20,00,49,12.60
2008,07,20,00,50,12.60
2008,07,20,00,51,12.60
2008,07,20,00,52,12.60
2008,07,20,00,53,12.60
2008,07,20,00,54,12.60
2008,07,20,00,55,12.60
2008,07,20,00,56,12.60
2008,07,20,00,57,12.50
2008,07,20,00,58,12.50
2008,07,20,00,59,12.50
2008,07,20,01,00,12.50
2008,07,20,01,01,12.50
2008,07,20,01,02,12.50
2008,07,20,01,03,12.50
2008,07,20,01,04,12.50
2008,07,20,01,05,12.50
2008,07,20,01,06,12.50
2008,07,20,01,07,12.50
2008,07,20,01,08,12.50
2008,07,20,01,09,12.50
2008,07,20,01,10,12.40
2008,07,20,01,11,12.40
2008,07,20,01,12,12.40
2008,07,20,01,13,12.40
2008,07,20,01,14,12.40
2008,07,20,01,15,12.40
2008,07,20,01,16,12.30
2008,07,20,01,17,12.30
2008,07,20,01,18,12.30
2008,07,20,01,19,12.30
2008,07,20,01,20,12.30
2008,07,20,01,21,12.30
2008,07,20,01,22,12.30
2008,07,20,01,23,12.30
2008,07,20,01,24,12.30
2008,07,20,01,25,12.30
2008,07,20,01,26,12.30
2008,07,20,01,27,12.30
2008,07,20,01,28,12.30
2008,07,20,01,29,12.30
2008,07,20,01,30,12.30
2008,07,20,01,31,12.20
2008,07,20,01,32,12.20
2008,07,20,01,33,12.20
2008,07,20,01,34,12.20
2008,07,20,01,35,12.20
2008,07,20,01,36,12.20
2008,07,20,01,37,12.20
2008,07,20,01,38,12.20
2008,07,20,01,39,12.20
2008,07,20,01,40,12.20
2008,07,20,01,41,12.20
2008,07,20,01,42,12.20
2008,07,20,01,43,12.20
2008,07,20,01,44,12.20
2008,07,20,01,45,12.20
2008,07,20,01,46,12.20
2008,07,20,01,47,12.20
2008,07,20,01,48,12.20
2008,07,20,01,49,12.20
2008,07,20,01,50,12.10
2008,07,20,01,51,12.10
2008,07,20,01,52,12.10
2008,07,20,01,53,12.10
2008,07,20,01,54,12.10
2008,07,20,01,55,12.10
2008,07,20,01,56,12.10
2008,07,20,01,57,12.10
2008,07,20,01,58,12.10
2008,07,20,01,59,12.10
2008,07,20,02,00,12.10
2008,07,20,02,01,12.10
2008,07,20,02,02,12.10
2008,07,20,02,03,12.10
2008,07,20,02,04,12.10
2008,07,20,02,05,12.00
2008,07,20,02,06,12.00
2008,07,20,02,07,12.00
2008,07,20,02,08,12.00
2008,07,20,02,09,11.90
2008,07,20,02,10,11.90
2008,07,20,02,11,11.90
2008,07,20,02,12,11.90
2008,07,20,02,13,11.90
2008,07,20,02,14,11.90
2008,07,20,02,15,11.90
2008,07,20,02,16,11.90
2008,07,20,02,17,11.80
2008,07,20,02,18,11.80
2008,07,20,02,19,11.80
2008,07,20,02,20,11.80
2008,07,20,02,21,11.80
2008,07,20,02,22,11.80
2008,07,20,02,23,11.80
2008,07,20,02,24,11.80
2008,07,20,02,25,11.80
2008,07,20,02,26,11.80
2008,07,20,02,27,11.80
2008,07,20,02,28,11.80
2008,07,20,02,29,11.70
2008,07,20,02,30,11.70
2008,07,20,02,31,11.70
2008,07,20,02,32,11.70
2008,07,20,02,33,11.70
2008,07,20,02,34,11.70
2008,07,20,02,35,11.70
2008,07,20,02,36,11.60
2008,07,20,02,37,11.60
2008,07,20,02,38,11.60
2008,07,20,02,39,11.60
2008,07,20,02,40,11.60
2008,07,20,02,41,11.60
2008,07,20,02,42,11.60
2008,07,20,02,43,11.60
2008,07,20,02,44,11.60
2008,07,20,02,45,11.50
2008,07,20,02,46,11.50
2008,07,20,02,47,11.50
2008,07,20,02,48,11.50
2008,07,20,02,49,11.50
2008,07,20,02,50,11.50
2008,07,20,02,51,11.50
2008,07,20,02,52,11.50
2008,07,20,02,53,11.50
2008,07,20,02,54,11.50
2008,07,20,02,55,11.50
2008,07,20,02,56,11.50
2008,07,20,02,57,11.50
2008,07,20,02,58,11.50
2008,07,20,02,59,11.50
2008,07,20,03,00,11.50
2008,07,20,03,01,11.50
2008,07,20,03,02,11.50
2008,07,20,03,03,11.50
2008,07,20,03,04,11.50
2008,07,20,03,05,11.50
2008,07,20,03,06,11.50
2008,07,20,03,07,11.40
2008,07,20,03,08,11.40
2008,07,20,03,09,11.40
2008,07,20,03,10,11.40
2008,07,20,03,11,11.40
2008,07,20,03,12,11.40
2008,07,20,03,13,11.40
2008,07,20,03,14,11.40
2008,07,20,03,15,11.40
2008,07,20,03,16,11.40
2008,07,20,03,17,11.40
2008,07,20,03,18,11.30
2008,07,20,03,19,11.30
2008,07,20,03,20,11.40
2008,07,20,03,21,11.30
2008,07,20,03,22,11.40
2008,07,20,03,23,11.40
2008,07,20,03,24,11.40
2008,07,20,03,25,11.40
2008,07,20,03,26,11.40
2008,07,20,03,27,11.40
2008,07,20,03,28,11.40
2008,07,20,03,29,11.40
2008,07,20,03,30,11.40
2008,07,20,04,02,11.30
2008,07,20,04,03,11.30
2008,07,20,04,04,11.30
2008,07,20,04,05,11.30
2008,07,20,04,06,11.30
2008,07,20,04,07,11.30
2008,07,20,04,08,11.30
2008,07,20,04,09,11.30
2008,07,20,04,10,11.30
2008,07,20,04,11,11.30
2008,07,20,04,12,11.30
2008,07,20,04,13,11.30
2008,07,20,04,14,11.30
2008,07,20,04,15,11.20
2008,07,20,04,16,11.20
2008,07,20,04,17,11.20
2008,07,20,04,18,11.20
2008,07,20,04,19,11.20
2008,07,20,04,20,11.20
2008,07,20,04,21,11.20
2008,07,20,04,22,11.20
2008,07,20,04,23,11.10
2008,07,20,04,24,11.10
2008,07,20,04,25,11.10
2008,07,20,04,26,11.10
2008,07,20,04,27,11.10
2008,07,20,04,28,11.10
2008,07,20,04,29,11.10
2008,07,20,04,30,11.10
2008,07,20,04,31,11.10
2008,07,20,04,32,11.10
2008,07,20,04,33,11.00
2008,07,20,04,34,11.00
2008,07,20,04,35,11.00
2008,07,20,04,36,11.00
2008,07,20,04,37,11.00
2008,07,20,04,38,11.00
2008,07,20,04,39,11.00
2008,07,20,04,40,11.00
2008,07,20,04,41,11.00
2008,07,20,04,42,11.00
2008,07,20,04,43,11.00
2008,07,20,04,44,11.00
2008,07,20,04,45,11.00
2008,07,20,04,46,11.00
2008,07,20,04,47,11.00
2008,07,20,04,48,11.00
2008,07,20,04,49,11.00
2008,07,20,04,50,11.00
2008,07,20,04,51,11.00
2008,07,20,04,52,11.00
2008,07,20,04,53,11.00
2008,07,20,04,54,11.00
2008,07,20,04,55,11.00
2008,07,20,04,56,10.90
2008,07,20,04,57,10.90
2008,07,20,04,58,10.90
2008,07,20,04,59,10.90
2008,07,20,05,00,10.90
2008,07,20,05,01,10.90
2008,07,20,05,02,10.90
2008,07,20,05,03,10.90
2008,07,20,05,04,10.90
2008,07,20,05,05,10.90
2008,07,20,05,06,10.90
2008,07,20,05,07,10.90
2008,07,20,05,08,10.90
2008,07,20,05,09,10.90
2008,07,20,05,10,10.90
2008,07,20,05,11,10.90
2008,07,20,05,12,10.80
2008,07,20,05,13,10.80
2008,07,20,05,14,10.80
2008,07,20,05,15,10.80
2008,07,20,05,16,10.80
2008,07,20,05,17,10.80
2008,07,20,05,18,10.80
2008,07,20,05,19,10.80
2008,07,20,05,20,10.80
2008,07,20,05,21,10.80
2008,07,20,05,22,10.80
2008,07,20,05,23,10.70
2008,07,20,05,24,10.70
2008,07,20,05,25,10.70
2008,07,20,05,26,10.70
2008,07,20,05,27,10.70
2008,07,20,05,28,10.70
2008,07,20,05,29,10.70
2008,07,20,05,30,10.70
2008,07,20,05,31,10.70
2008,07,20,05,32,10.70
2008,07,20,05,33,10.70
2008,07,20,05,34,10.70
2008,07,20,05,35,10.70
2008,07,20,05,36,10.70
2008,07,20,05,37,10.70
2008,07,20,05,38,10.70
2008,07,20,05,39,10.70
2008,07,20,05,40,10.70
2008,07,20,05,41,10.70
2008,07,20,05,42,10.70
2008,07,20,05,43,10.70
2008,07,20,05,44,10.70
2008,07,20,05,45,10.70
2008,07,20,05,46,10.70
2008,07,20,05,47,10.70
2008,07,20,05,48,10.70
2008,07,20,05,49,10.70
2008,07,20,05,50,10.70
2008,07,20,05,51,10.70
2008,07,20,05,52,10.70
2008,07,20,05,53,10.70
2008,07,20,05,54,10.70
2008,07,20,05,55,10.70
2008,07,20,05,56,10.70
2008,07,20,05,57,10.70
2008,07,20,05,58,10.70
2008,07,20,05,59,10.70
2008,07,20,06,00,10.70
2008,07,20,06,01,10.70
2008,07,20,06,02,10.70
2008,07,20,06,03,10.70
2008,07,20,06,04,10.70
2008,07,20,06,05,10.70
2008,07,20,06,06,10.70
2008,07,20,06,07,10.70
2008,07,20,06,08,10.70
2008,07,20,06,09,10.70
2008,07,20,06,10,10.70
2008,07,20,06,11,10.70
2008,07,20,06,12,10.70
2008,07,20,06,13,10.70
2008,07,20,06,14,10.70
2008,07,20,06,15,10.70
2008,07,20,06,16,10.70
2008,07,20,06,17,10.70
2008,07,20,06,18,10.70
2008,07,20,06,19,10.70
2008,07,20,06,20,10.70
2008,07,20,06,21,10.70
2008,07,20,06,22,10.70
2008,07,20,06,23,10.80
2008,07,20,06,24,10.80
2008,07,20,06,25,10.80
2008,07,20,06,26,10.80
2008,07,20,06,27,10.80
2008,07,20,06,28,10.80
2008,07,20,06,29,10.80
2008,07,20,06,30,10.80
2008,07,20,06,31,10.90
2008,07,20,06,32,10.90
2008,07,20,06,33,10.90
2008,07,20,06,34,10.90
2008,07,20,06,35,10.90
2008,07,20,06,36,11.00
2008,07,20,06,37,11.00
2008,07,20,06,38,11.00
2008,07,20,06,39,11.00
2008,07,20,06,40,11.00
2008,07,20,06,41,11.10
2008,07,20,06,42,11.10
2008,07,20,06,43,11.10
2008,07,20,06,44,11.10
2008,07,20,06,45,11.10
2008,07,20,06,46,11.20
2008,07,20,06,47,11.20
2008,07,20,06,48,11.20
2008,07,20,06,49,11.20
2008,07,20,06,50,11.20
2008,07,20,06,51,11.30
2008,07,20,06,52,11.30
2008,07,20,06,53,11.30
2008,07,20,06,54,11.30
2008,07,20,06,55,11.40
2008,07,20,06,56,11.40
2008,07,20,06,57,11.40
2008,07,20,06,58,11.50
2008,07,20,06,59,11.50
2008,07,20,07,00,11.50
2008,07,20,07,01,11.60
2008,07,20,07,02,11.60
2008,07,20,07,03,11.60
2008,07,20,07,04,11.60
2008,07,20,07,05,11.70
2008,07,20,07,06,11.70
2008,07,20,07,07,11.70
2008,07,20,07,08,11.70
2008,07,20,07,09,11.80
2008,07,20,07,10,11.80
2008,07,20,07,11,11.80
2008,07,20,07,12,11.80
2008,07,20,07,13,11.90
2008,07,20,07,14,11.90
2008,07,20,07,15,11.90
2008,07,20,07,16,11.90
2008,07,20,07,17,11.90
2008,07,20,07,18,12.00
2008,07,20,07,19,12.00
2008,07,20,07,20,12.00
2008,07,20,07,21,12.10
2008,07,20,07,22,12.10
2008,07,20,07,23,12.10
2008,07,20,07,24,12.20
2008,07,20,07,25,12.20
2008,07,20,07,26,12.20
2008,07,20,07,27,12.30
2008,07,20,07,28,12.30
2008,07,20,07,29,12.30
2008,07,20,07,30,12.30
2008,07,20,07,31,12.40
2008,07,20,07,32,12.40
2008,07,20,07,33,12.40
2008,07,20,07,34,12.50
2008,07,20,07,35,12.50
2008,07,20,07,36,12.60
2008,07,20,07,37,12.70
2008,07,20,07,38,12.70
2008,07,20,07,39,12.80
2008,07,20,07,40,12.80
2008,07,20,07,41,12.80
2008,07,20,07,42,12.80
2008,07,20,07,43,12.90
2008,07,20,07,44,12.90
2008,07,20,07,45,12.90
2008,07,20,07,46,13.00
2008,07,20,07,47,13.00
2008,07,20,07,48,13.00
2008,07,20,07,49,13.10
2008,07,20,07,50,13.10
2008,07,20,07,51,13.20
2008,07,20,07,52,13.20
2008,07,20,07,53,13.30
2008,07,20,07,54,13.30
2008,07,20,07,55,13.40
2008,07,20,07,56,13.40
2008,07,20,07,57,13.50
2008,07,20,07,58,13.50
2008,07,20,07,59,13.60
2008,07,20,08,00,13.60
2008,07,20,08,01,13.70
2008,07,20,08,02,13.70
2008,07,20,08,03,13.80
2008,07,20,08,04,13.80
2008,07,20,08,05,13.90
2008,07,20,08,06,14.00
2008,07,20,08,07,14.10
2008,07,20,08,08,14.20
2008,07,20,08,09,14.20
2008,07,20,08,10,14.30
2008,07,20,08,11,14.40
2008,07,20,08,12,14.50
2008,07,20,08,13,14.50
2008,07,20,08,14,14.60
2008,07,20,08,15,14.70
2008,07,20,08,16,14.70
2008,07,20,08,17,14.90
2008,07,20,08,18,15.00
2008,07,20,08,19,15.00
2008,07,20,08,20,15.00
2008,07,20,08,21,15.00
2008,07,20,08,22,15.10
2008,07,20,08,23,15.20
2008,07,20,08,24,15.30
2008,07,20,08,25,15.40
2008,07,20,08,26,15.40
2008,07,20,08,27,15.40
2008,07,20,08,28,15.40
2008,07,20,08,29,15.30
2008,07,20,08,30,15.30
2008,07,20,08,31,15.30
2008,07,20,08,32,15.30
2008,07,20,08,33,15.30
2008,07,20,08,34,15.40
2008,07,20,08,35,15.40
2008,07,20,08,36,15.50
2008,07,20,08,37,15.60
2008,07,20,08,38,15.70
2008,07,20,08,39,15.80
2008,07,20,08,40,15.90
2008,07,20,08,41,16.00
2008,07,20,08,42,16.10
2008,07,20,08,43,16.10
2008,07,20,08,44,16.20
2008,07,20,08,45,16.20
2008,07,20,08,46,16.30
2008,07,20,08,47,16.30
2008,07,20,08,48,16.30
2008,07,20,08,49,16.40
2008,07,20,08,50,16.40
2008,07,20,08,51,16.40
2008,07,20,08,52,16.30
2008,07,20,08,53,16.30
2008,07,20,08,54,16.30
2008,07,20,08,55,16.20
2008,07,20,08,56,16.20
2008,07,20,08,57,16.20
2008,07,20,08,58,16.20
2008,07,20,08,59,16.20
2008,07,20,09,00,16.20
2008,07,20,09,01,16.20
2008,07,20,09,02,16.30
2008,07,20,09,03,16.30
2008,07,20,09,04,16.40
2008,07,20,09,05,16.30
2008,07,20,09,06,16.30
2008,07,20,09,07,16.30
2008,07,20,09,08,16.30
2008,07,20,09,09,16.30
2008,07,20,09,10,16.40
2008,07,20,09,11,16.40
2008,07,20,09,12,16.50
2008,07,20,09,13,16.50
2008,07,20,09,14,16.50
2008,07,20,09,15,16.50
2008,07,20,09,16,16.50
2008,07,20,09,17,16.60
2008,07,20,09,18,16.60
2008,07,20,09,19,16.70
2008,07,20,09,20,16.80
2008,07,20,09,21,16.90
2008,07,20,09,22,16.90
2008,07,20,09,23,17.00
2008,07,20,09,24,17.10
2008,07,20,09,25,17.20
2008,07,20,09,26,17.20
2008,07,20,09,27,17.20
2008,07,20,09,28,17.20
2008,07,20,09,29,17.20
2008,07,20,09,30,17.20
2008,07,20,09,31,17.20
2008,07,20,09,32,17.30
2008,07,20,09,33,17.30
2008,07,20,09,34,17.20
2008,07,20,09,35,17.20
2008,07,20,09,36,17.30
2008,07,20,09,37,17.30
2008,07,20,09,38,17.40
2008,07,20,09,39,17.50
2008,07,20,09,40,17.60
2008,07,20,09,41,17.70
2008,07,20,09,42,17.80
2008,07,20,09,43,17.80
2008,07,20,09,44,17.80
2008,07,20,09,45,17.90
2008,07,20,09,46,17.90
2008,07,20,09,47,17.90
2008,07,20,09,48,17.90
2008,07,20,09,49,17.90
2008,07,20,09,50,17.80
2008,07,20,09,51,17.80
2008,07,20,09,52,17.80
2008,07,20,09,53,17.70
2008,07,20,09,54,17.80
2008,07,20,09,55,17.70
2008,07,20,09,56,17.80
2008,07,20,09,57,17.80
2008,07,20,09,58,17.90
2008,07,20,09,59,18.00
2008,07,20,10,00,18.10
2008,07,20,10,01,18.20
2008,07,20,10,02,18.20
2008,07,20,10,03,18.20
2008,07,20,10,04,18.20
2008,07,20,10,05,18.20
2008,07,20,10,06,18.10
2008,07,20,10,07,18.20
2008,07,20,10,08,18.20
2008,07,20,10,09,18.20
2008,07,20,10,10,18.30
2008,07,20,10,11,18.30
2008,07,20,10,12,18.30
2008,07,20,10,13,18.40
2008,07,20,10,14,18.40
2008,07,20,10,15,18.40
2008,07,20,10,16,18.40
2008,07,20,10,17,18.40
2008,07,20,10,18,18.40
2008,07,20,10,19,18.30
2008,07,20,10,20,18.30
2008,07,20,10,21,18.40
2008,07,20,10,22,18.40
2008,07,20,10,23,18.50
2008,07,20,10,24,18.60
2008,07,20,10,25,18.70
2008,07,20,10,26,18.70
2008,07,20,10,27,18.70
2008,07,20,10,28,18.80
2008,07,20,10,29,18.80
2008,07,20,10,30,18.80
2008,07,20,10,31,18.70
2008,07,20,10,32,18.70
2008,07,20,10,33,18.70
2008,07,20,10,34,18.70
2008,07,20,10,35,18.80
2008,07,20,10,36,18.70
2008,07,20,10,37,18.70
2008,07,20,10,38,18.70
2008,07,20,10,39,18.70
2008,07,20,10,40,18.70
2008,07,20,10,41,18.70
2008,07,20,10,42,18.70
2008,07,20,10,43,18.80
2008,07,20,10,44,18.80
2008,07,20,10,45,18.80
2008,07,20,10,46,18.80
2008,07,20,10,47,18.70
2008,07,20,10,48,18.50
2008,07,20,10,49,18.40
2008,07,20,10,50,18.40
2008,07,20,10,51,18.30
2008,07,20,10,52,18.40
2008,07,20,10,53,18.40
2008,07,20,10,54,18.40
2008,07,20,10,55,18.50
2008,07,20,10,56,18.50
2008,07,20,10,57,18.60
2008,07,20,10,58,18.70
2008,07,20,10,59,18.70
2008,07,20,11,00,18.70
2008,07,20,11,01,18.70
2008,07,20,11,02,18.80
2008,07,20,11,03,18.80
2008,07,20,11,04,18.90
2008,07,20,11,05,19.00
2008,07,20,11,06,19.00
2008,07,20,11,07,19.00
2008,07,20,11,08,19.00
2008,07,20,11,09,19.10
2008,07,20,11,10,19.20
2008,07,20,11,11,19.10
2008,07,20,11,12,19.10
2008,07,20,11,13,19.10
2008,07,20,11,14,19.10
2008,07,20,11,15,19.10
2008,07,20,11,16,19.10
2008,07,20,11,17,19.10
2008,07,20,11,18,19.10
2008,07,20,11,19,19.10
2008,07,20,11,20,19.10
2008,07,20,11,21,19.20
2008,07,20,11,22,19.20
2008,07,20,11,23,19.20
2008,07,20,11,24,19.20
2008,07,20,11,25,19.30
2008,07,20,11,26,19.30
2008,07,20,11,27,19.30
2008,07,20,11,28,19.40
2008,07,20,11,29,19.40
2008,07,20,11,30,19.40
2008,07,20,11,31,19.40
2008,07,20,11,32,19.40
2008,07,20,11,33,19.30
2008,07,20,11,34,19.20
2008,07,20,11,35,19.20
2008,07,20,11,36,19.20
2008,07,20,11,37,19.30
2008,07,20,11,38,19.30
2008,07,20,11,39,19.30
2008,07,20,11,40,19.20
2008,07,20,11,41,19.20
2008,07,20,11,42,19.20
2008,07,20,11,43,19.20
2008,07,20,11,44,19.30
2008,07,20,11,45,19.30
2008,07,20,11,46,19.40
2008,07,20,11,47,19.40
2008,07,20,11,48,19.50
2008,07,20,11,49,19.50
2008,07,20,11,50,19.50
2008,07,20,11,51,19.40
2008,07,20,11,52,19.20
2008,07,20,11,53,19.30
2008,07,20,11,54,19.30
2008,07,20,11,55,19.30
2008,07,20,11,56,19.40
2008,07,20,11,57,19.50
2008,07,20,11,58,19.60
2008,07,20,11,59,19.60
2008,07,20,12,00,19.60
2008,07,20,12,01,19.70
2008,07,20,12,02,19.70
2008,07,20,12,03,19.80
2008,07,20,12,04,19.90
2008,07,20,12,05,19.90
2008,07,20,12,06,20.00
2008,07,20,12,07,20.00
2008,07,20,12,08,20.10
2008,07,20,12,09,20.10
2008,07,20,12,10,20.00
2008,07,20,12,11,20.00
2008,07,20,12,12,20.10
2008,07,20,12,13,20.20
2008,07,20,12,14,20.30
2008,07,20,12,15,20.50
2008,07,20,12,16,20.60
2008,07,20,12,17,20.70
2008,07,20,12,18,20.80
2008,07,20,12,19,20.90
2008,07,20,12,20,21.00
2008,07,20,12,21,21.20
2008,07,20,12,22,21.30
2008,07,20,12,23,21.30
2008,07,20,12,24,21.30
2008,07,20,12,25,21.30
2008,07,20,12,26,21.30
2008,07,20,12,27,21.30
2008,07,20,12,28,21.30
2008,07,20,12,29,21.30
2008,07,20,12,30,21.30
2008,07,20,12,31,21.20
2008,07,20,12,32,21.20
2008,07,20,12,33,21.20
2008,07,20,12,34,21.10
2008,07,20,12,35,21.10
2008,07,20,12,36,21.10
2008,07,20,12,37,21.10
2008,07,20,12,38,21.00
2008,07,20,12,39,20.90
2008,07,20,12,40,20.80
2008,07,20,12,41,20.80
2008,07,20,12,42,20.70
2008,07,20,12,43,20.70
2008,07,20,12,44,20.70
2008,07,20,12,45,20.70
2008,07,20,12,46,20.80
2008,07,20,12,47,20.90
2008,07,20,12,48,21.00
2008,07,20,12,49,21.20
2008,07,20,12,50,21.10
2008,07,20,12,51,21.00
2008,07,20,12,52,20.90
2008,07,20,12,53,20.80
2008,07,20,12,54,20.80
2008,07,20,12,55,20.70
2008,07,20,12,56,20.50
2008,07,20,12,57,20.50
2008,07,20,12,58,20.60
2008,07,20,12,59,20.80
2008,07,20,13,00,20.80
2008,07,20,13,01,20.90
2008,07,20,13,02,21.00
2008,07,20,13,03,21.20
2008,07,20,13,04,21.30
2008,07,20,13,05,21.30
2008,07,20,13,06,21.30
2008,07,20,13,07,21.10
2008,07,20,13,08,21.20
2008,07,20,13,09,21.20
2008,07,20,13,10,21.20
2008,07,20,13,11,21.20
2008,07,20,13,12,21.20
2008,07,20,13,13,21.20
2008,07,20,13,14,21.20
2008,07,20,13,15,21.10
2008,07,20,13,16,21.00
2008,07,20,13,17,21.00
2008,07,20,13,18,21.00
2008,07,20,13,19,21.10
2008,07,20,13,20,21.20
2008,07,20,13,21,21.30
2008,07,20,13,22,21.40
2008,07,20,13,23,21.50
2008,07,20,13,24,21.60
2008,07,20,13,25,21.70
2008,07,20,13,26,21.70
2008,07,20,13,27,21.70
2008,07,20,13,28,21.70
2008,07,20,13,29,21.60
2008,07,20,13,30,21.50
2008,07,20,13,31,21.40
2008,07,20,13,32,21.40
2008,07,20,13,33,21.30
2008,07,20,13,34,21.30
2008,07,20,13,35,21.20
2008,07,20,13,36,21.20
2008,07,20,13,37,21.20
2008,07,20,13,38,21.10
2008,07,20,13,39,21.00
2008,07,20,13,40,20.90
2008,07,20,13,41,20.90
2008,07,20,13,42,21.00
2008,07,20,13,43,21.10
2008,07,20,13,44,21.10
2008,07,20,13,45,21.00
2008,07,20,13,46,20.90
2008,07,20,13,47,21.00
2008,07,20,13,48,21.10
2008,07,20,13,49,21.20
2008,07,20,13,50,21.30
2008,07,20,13,51,21.40
2008,07,20,13,52,21.60
2008,07,20,13,53,21.80
2008,07,20,13,54,22.00
2008,07,20,13,55,22.20
2008,07,20,13,56,22.30
2008,07,20,13,57,22.50
2008,07,20,13,58,22.70
2008,07,20,13,59,22.90
2008,07,20,14,00,23.10
2008,07,20,14,01,23.20
2008,07,20,14,02,23.40
2008,07,20,14,03,23.40
2008,07,20,14,04,23.40
2008,07,20,14,05,23.40
2008,07,20,14,06,23.50
2008,07,20,14,07,23.50
2008,07,20,14,08,23.60
2008,07,20,14,09,23.50
2008,07,20,14,10,23.40
2008,07,20,14,11,23.30
2008,07,20,14,12,23.20
2008,07,20,14,13,23.10
2008,07,20,14,14,23.10
2008,07,20,14,15,23.10
2008,07,20,14,16,23.10
2008,07,20,14,17,23.10
2008,07,20,14,18,23.20
2008,07,20,14,19,23.30
2008,07,20,14,20,23.30
2008,07,20,14,21,23.40
2008,07,20,14,22,23.40
2008,07,20,14,23,23.30
2008,07,20,14,24,23.20
2008,07,20,14,25,23.20
2008,07,20,14,26,23.10
2008,07,20,14,27,23.20
2008,07,20,14,28,23.30
2008,07,20,14,29,23.30
2008,07,20,14,30,23.40
2008,07,20,14,31,23.50
2008,07,20,14,32,23.60
2008,07,20,14,33,23.60
2008,07,20,14,34,23.70
2008,07,20,14,35,23.70
2008,07,20,14,36,23.70
2008,07,20,14,37,23.80
2008,07,20,14,38,23.90
2008,07,20,14,39,24.00
2008,07,20,14,40,24.10
2008,07,20,14,41,24.10
2008,07,20,14,42,24.20
2008,07,20,14,43,24.20
2008,07,20,14,44,24.30
2008,07,20,14,45,24.30
2008,07,20,14,46,24.40
2008,07,20,14,47,24.40
2008,07,20,14,48,24.40
2008,07,20,14,49,24.50
2008,07,20,14,50,24.60
2008,07,20,14,51,24.80
2008,07,20,14,52,24.80
2008,07,20,14,53,24.90
2008,07,20,14,54,24.90
2008,07,20,14,55,24.90
2008,07,20,14,56,24.80
2008,07,20,14,57,24.70
2008,07,20,14,58,24.50
2008,07,20,14,59,24.30
2008,07,20,15,00,24.10
2008,07,20,15,01,24.10
2008,07,20,15,02,24.10
2008,07,20,15,03,24.00
2008,07,20,15,04,24.00
2008,07,20,15,05,23.90
2008,07,20,15,06,24.00
2008,07,20,15,07,24.10
2008,07,20,15,08,24.10
2008,07,20,15,09,24.10
2008,07,20,15,10,24.10
2008,07,20,15,11,23.90
2008,07,20,15,12,23.80
2008,07,20,15,13,23.80
2008,07,20,15,14,23.80
2008,07,20,15,15,23.90
2008,07,20,15,16,24.00
2008,07,20,15,17,24.10
2008,07,20,15,18,24.10
2008,07,20,15,19,24.20
2008,07,20,15,20,24.10
2008,07,20,15,21,24.00
2008,07,20,15,22,23.90
2008,07,20,15,23,23.80
2008,07,20,15,24,23.90
2008,07,20,15,25,23.90
2008,07,20,15,26,23.90
2008,07,20,15,27,23.70
2008,07,20,15,28,23.60
2008,07,20,15,29,23.50
2008,07,20,15,30,23.50
2008,07,20,15,31,23.50
2008,07,20,15,32,23.50
2008,07,20,15,33,23.50
2008,07,20,15,34,23.50
2008,07,20,15,35,23.40
2008,07,20,15,36,23.30
2008,07,20,15,37,23.20
2008,07,20,15,38,23.30
2008,07,20,15,39,23.30
2008,07,20,15,40,23.30
2008,07,20,15,41,23.30
2008,07,20,15,42,23.30
2008,07,20,15,43,23.40
2008,07,20,15,44,23.50
2008,07,20,15,45,23.50
2008,07,20,15,46,23.40
2008,07,20,15,47,23.40
2008,07,20,15,48,23.40
2008,07,20,15,49,23.30
2008,07,20,15,50,23.30
2008,07,20,15,51,23.40
2008,07,20,15,52,23.50
2008,07,20,15,53,23.60
2008,07,20,15,54,23.60
2008,07,20,15,55,23.70
2008,07,20,15,56,23.70
2008,07,20,15,57,23.80
2008,07,20,15,58,23.90
2008,07,20,15,59,24.00
2008,07,20,16,00,24.00
2008,07,20,16,01,24.00
2008,07,20,16,02,24.00
2008,07,20,16,03,23.90
2008,07,20,16,04,23.80
2008,07,20,16,05,23.80
2008,07,20,16,06,23.80
2008,07,20,16,07,23.80
2008,07,20,16,08,23.90
2008,07,20,16,09,24.10
2008,07,20,16,10,24.20
2008,07,20,16,11,24.10
2008,07,20,16,12,24.10
2008,07,20,16,13,24.10
2008,07,20,16,14,24.10
2008,07,20,16,15,24.00
2008,07,20,16,16,24.00
2008,07,20,16,17,23.90
2008,07,20,16,18,23.80
2008,07,20,16,19,23.70
2008,07,20,16,20,23.70
2008,07,20,16,21,23.70
2008,07,20,16,22,23.70
2008,07,20,16,23,23.80
2008,07,20,16,24,23.80
2008,07,20,16,25,23.90
2008,07,20,16,26,23.90
2008,07,20,16,27,23.90
2008,07,20,16,28,23.80
2008,07,20,16,29,23.70
2008,07,20,16,30,23.70
2008,07,20,16,31,23.60
2008,07,20,16,32,23.50
2008,07,20,16,33,23.50
2008,07,20,16,34,23.70
2008,07,20,16,35,23.70
2008,07,20,16,36,23.70
2008,07,20,16,37,23.70
2008,07,20,16,38,23.80
2008,07,20,16,39,23.90
2008,07,20,16,40,24.00
2008,07,20,16,41,24.10
2008,07,20,16,42,24.20
2008,07,20,16,43,24.10
2008,07,20,16,44,24.10
2008,07,20,16,45,24.00
2008,07,20,16,46,24.00
2008,07,20,16,47,23.90
2008,07,20,16,48,23.90
2008,07,20,16,49,23.90
2008,07,20,16,50,24.00
2008,07,20,16,51,24.10
2008,07,20,16,52,24.20
2008,07,20,16,53,24.20
2008,07,20,16,54,24.20
2008,07,20,16,55,24.10
2008,07,20,16,56,24.10
2008,07,20,16,57,23.90
2008,07,20,16,58,23.80
2008,07,20,16,59,23.70
2008,07,20,17,00,23.70
2008,07,20,17,01,23.70
2008,07,20,17,02,23.70
2008,07,20,17,03,23.60
2008,07,20,17,04,23.60
2008,07,20,17,05,23.50
2008,07,20,17,06,23.50
2008,07,20,17,07,23.50
2008,07,20,17,08,23.60
2008,07,20,17,09,23.60
2008,07,20,17,10,23.60
2008,07,20,17,11,23.60
2008,07,20,17,12,23.60
2008,07,20,17,13,23.50
2008,07,20,17,14,23.40
2008,07,20,17,15,23.50
2008,07,20,17,16,23.50
2008,07,20,17,17,23.40
2008,07,20,17,18,23.50
2008,07,20,17,19,23.50
2008,07,20,17,20,23.50
2008,07,20,17,21,23.60
2008,07,20,17,22,23.60
2008,07,20,17,23,23.60
2008,07,20,17,24,23.60
2008,07,20,17,25,23.50
2008,07,20,17,26,23.50
2008,07,20,17,27,23.50
2008,07,20,17,28,23.60
2008,07,20,17,29,23.70
2008,07,20,17,30,23.70
2008,07,20,17,31,23.60
2008,07,20,17,32,23.60
2008,07,20,17,33,23.60
2008,07,20,17,34,23.60
2008,07,20,17,35,23.60
2008,07,20,17,36,23.60
2008,07,20,17,37,23.60
2008,07,20,17,38,23.50
2008,07,20,17,39,23.40
2008,07,20,17,40,23.40
2008,07,20,17,41,23.50
2008,07,20,17,42,23.50
2008,07,20,17,43,23.60
2008,07,20,17,44,23.50
2008,07,20,17,45,23.50
2008,07,20,17,46,23.40
2008,07,20,17,47,23.30
2008,07,20,17,48,23.20
2008,07,20,17,49,23.20
2008,07,20,17,50,23.20